Flag for U.S.A. Weather past 2 weeks in Beaumont, Texas, U.S.A.

Now
63 °F

Sunny.


Feels Like: 63 °F
Forecast: 56 / 79 °F
Wind: 8 mph from East

Location: Jefferson County Airport

Current Time: Apr 21, 2015 at 8:42:20 AM

Latest Report: Apr 21, 2015 at 7:53 AM


Visibility: 10 mi

Pressure: 30.01 "Hg

Humidity: 60%

Dew point: 49 °F

Location of BeaumontLocation

Historic Weather in Beaumont — Graph

°F

Beaumont temperature yesterday

Maximum temperature yesterday: 76 °F (at 3:53 PM)
Minimum temperature yesterday: 60 °F (at 9:53 PM)
Average temperature yesterday: 67 °F

Past Weeks' High & Low Weather Summary

 TemperatureHumidityPressure
High87 °F (Apr 13, 2:53 PM)100% (Apr 6, 6:53 AM)30.11 "Hg (Apr 6, 6:53 AM)
Low59 °F (Apr 19, 5:53 AM)36% (Apr 20, 4:53 PM)29.73 "Hg (Apr 18, 7:53 PM)
Average72 °F84%29.95 "Hg
* Reported Apr 6 6:53 AM — Apr 21 6:53 AM, Beaumont, Weather by CustomWeather, © 2015

Note: Actual official high and low records may vary slightly from our data, if they occured in-between our weather recording intervals... More about our weather records

Advertising

Beaumont weather history for previous 24 hours

 ConditionsComfort  
Time TempWeatherWind HumidityBarometerVisibility
6:53 AM
Tue, Apr 21
59 °FClear.5 mph69%30.00 "Hg10 mi
5:53 AM59 °FClear.6 mph75%29.97 "Hg10 mi
4:53 AM60 °FClear.5 mph72%29.97 "Hg10 mi
3:53 AM62 °FClear.6 mph67%29.97 "Hg10 mi
2:53 AM63 °FClear.6 mph65%29.97 "Hg10 mi
1:53 AM63 °FClear.5 mph68%29.98 "Hg10 mi
12:53 AM61 °FClear.5 mph83%29.99 "Hg10 mi
11:53 PM
Mon, Apr 20
60 °FClear.5 mph86%29.99 "Hg10 mi
10:53 PM61 °FClear.3 mph81%30.00 "Hg10 mi
9:53 PM60 °FClear.No wind86%30.00 "Hg10 mi
8:53 PM61 °FClear.No wind81%29.96 "Hg10 mi
7:53 PM66 °FSunny.6 mph59%29.93 "Hg10 mi
6:53 PM71 °FSunny.9 mph45%29.91 "Hg10 mi
5:53 PM74 °FSunny.N/A41%29.89 "Hg10 mi
4:53 PM76 °FSunny.14 mph36%29.90 "Hg10 mi
3:53 PM76 °FSunny.12 mph37%29.90 "Hg10 mi
2:53 PM75 °FSunny.12 mph39%29.92 "Hg10 mi
1:53 PM74 °FSunny.15 mph41%29.94 "Hg10 mi
12:53 PM72 °FSunny.15 mph44%29.95 "Hg10 mi
11:53 AM70 °FSunny.16 mph49%29.97 "Hg10 mi
10:53 AM69 °FSunny.16 mph55%29.97 "Hg10 mi
9:53 AM66 °FSunny.14 mph61%29.95 "Hg10 mi
8:53 AM64 °FSunny.15 mph70%29.93 "Hg10 mi
Weather by CustomWeather, © 2015

See weather overviewHow to use our weather pages